| time (UTC) | temp F | wind direction | speed MPH | gust MPH | rain 1hr in | rain 24hr in | rain mn in | humidity % | barometer mb |
| 20260504201601 | 80 | 205 | 7.0 | 15.0 | 0.00 | 0.00 | 0.00 | 34 | 1011.7 |
| 20260504200055 | 79 | 161 | 7.0 | 14.0 | 0.00 | 0.00 | 0.00 | 34 | 1012.0 |
| 20260504200046 | 79 | 158 | 7.0 | 12.0 | 0.00 | 0.00 | 0.00 | 45 | 1011.8 |
| 20260504194556 | 79 | 153 | 5.0 | 14.0 | 0.00 | 0.00 | 0.00 | 34 | 1012.2 |
| 20260504194548 | 79 | 162 | 4.0 | 11.0 | 0.00 | 0.00 | 0.00 | 46 | 1012.1 |
| 20260504193055 | 79 | 174 | 7.0 | 15.0 | 0.00 | 0.00 | 0.00 | 37 | 1012.5 |
| 20260504193039 | 79 | 232 | 7.0 | 15.0 | 0.00 | 0.00 | 0.00 | 48 | 1012.3 |
| 20260504191608 | 79 | 186 | 6.0 | 11.0 | 0.00 | 0.00 | 0.00 | 35 | 1012.6 |
| 20260504191542 | 79 | 192 | 6.0 | 9.0 | 0.00 | 0.00 | 0.00 | 47 | 1012.4 |
| 20260504190116 | 78 | 152 | 4.0 | 13.0 | 0.00 | 0.00 | 0.00 | 36 | 1012.9 |
| 20260504190033 | 78 | 188 | 4.0 | 10.0 | 0.00 | 0.00 | 0.00 | 47 | 1012.7 |
| 20260504184555 | 77 | 183 | 6.0 | 14.0 | 0.00 | 0.00 | 0.00 | 35 | 1013.0 |
| 20260504184534 | 77 | 199 | 6.0 | 13.0 | 0.00 | 0.00 | 0.00 | 46 | 1013.1 |
| 20260504183106 | 77 | 142 | 7.0 | 16.0 | 0.00 | 0.00 | 0.00 | 36 | 1013.1 |
| 20260504183030 | 77 | 160 | 8.0 | 12.0 | 0.00 | 0.00 | 0.00 | 47 | 1013.1 |
| 20260504181600 | 77 | 148 | 7.0 | 14.0 | 0.00 | 0.00 | 0.00 | 38 | 1013.3 |
| 20260504181532 | 77 | 198 | 6.0 | 14.0 | 0.00 | 0.00 | 0.00 | 47 | 1013.6 |
| 20260504180024 | 77 | 155 | 6.0 | 12.0 | 0.00 | 0.00 | 0.00 | 49 | 1013.9 |
| 20260504174558 | 76 | 162 | 8.0 | 14.0 | 0.00 | 0.00 | 0.00 | 36 | 1014.0 |
| 20260504174523 | 76 | 211 | 7.0 | 13.0 | 0.00 | 0.00 | 0.00 | 48 | 1014.1 |
| 20260504173057 | 76 | 204 | 6.0 | 18.0 | 0.00 | 0.00 | 0.00 | 38 | 1014.0 |
| 20260504173021 | 76 | 203 | 6.0 | 17.0 | 0.00 | 0.00 | 0.00 | 50 | 1014.2 |
| 20260504171553 | 75 | 203 | 8.0 | 16.0 | 0.00 | 0.00 | 0.00 | 39 | 1014.3 |
| 20260504171517 | 75 | 187 | 8.0 | 15.0 | 0.00 | 0.00 | 0.00 | 50 | 1014.4 |
| 20260504081558 | 50 | 0 | 0.0 | 0.0 | 0.00 | 0.00 | 0.00 | 54 | 1015.3 |
| 20260504080116 | 51 | 0 | 0.0 | 0.0 | 0.00 | 0.00 | 0.00 | 54 | 1015.4 |
| 20260504050105 | 55 | 0 | 0.0 | 0.0 | 0.00 | 0.00 | 0.00 | 56 | 1017.0 |
| 20260504044601 | 55 | 0 | 0.0 | 1.0 | 0.00 | 0.00 | 0.00 | 58 | 1016.8 |
| 20260504044528 | 55 | 360 | 0.0 | 1.0 | 0.00 | 0.00 | 0.00 | 69 | 1016.9 |
| 20260504043054 | 55 | 0 | 0.0 | 3.0 | 0.00 | 0.00 | 0.00 | 60 | 1016.9 |
| 20260504043029 | 55 | 360 | 0.0 | 1.0 | 0.00 | 0.00 | 0.00 | 71 | 1017.2 |
| 20260504041552 | 56 | 0 | 0.0 | 0.0 | 0.00 | 0.00 | 0.00 | 60 | 1016.7 |
| 20260504041528 | 56 | 360 | 0.0 | 0.0 | 0.00 | 0.00 | 0.00 | 71 | 1016.9 |
| 20260504040056 | 57 | 0 | 0.0 | 0.0 | 0.00 | 0.00 | 0.00 | 59 | 1016.8 |
| 20260504040028 | 57 | 360 | 0.0 | 0.0 | 0.00 | 0.00 | 0.00 | 70 | 1017.0 |
| 20260504034554 | 57 | 0 | 0.0 | 0.0 | 0.00 | 0.00 | 0.00 | 60 | 1016.7 |
| 20260504034533 | 57 | 360 | 0.0 | 0.0 | 0.00 | 0.00 | 0.00 | 71 | 1017.0 |
| 20260504033054 | 58 | 0 | 0.0 | 0.0 | 0.00 | 0.00 | 0.00 | 59 | 1016.6 |
| 20260504033044 | 58 | 360 | 0.0 | 0.0 | 0.00 | 0.00 | 0.00 | 70 | 1016.9 |
| 20260504031554 | 58 | 0 | 0.0 | 0.0 | 0.00 | 0.00 | 0.00 | 59 | 1016.7 |
| 20260504031530 | 58 | 360 | 0.0 | 0.0 | 0.00 | 0.00 | 0.00 | 71 | 1016.9 |
| 20260504030054 | 59 | 0 | 0.0 | 0.0 | 0.00 | 0.00 | 0.00 | 57 | 1016.7 |
| 20260504030025 | 59 | 360 | 0.0 | 0.0 | 0.00 | 0.00 | 0.00 | 69 | 1017.0 |
| 20260504024608 | 60 | 0 | 0.0 | 0.0 | 0.00 | 0.00 | 0.00 | 58 | 1016.7 |
| 20260504024540 | 60 | 360 | 0.0 | 0.0 | 0.00 | 0.00 | 0.00 | 69 | 1016.9 |
| 20260504023057 | 61 | 0 | 0.0 | 0.0 | 0.00 | 0.00 | 0.00 | 56 | 1016.8 |
| 20260504023024 | 61 | 360 | 0.0 | 0.0 | 0.00 | 0.00 | 0.00 | 67 | 1017.0 |
| 20260504021554 | 62 | 0 | 0.0 | 0.0 | 0.00 | 0.00 | 0.00 | 56 | 1016.6 |
| 20260504021524 | 62 | 360 | 0.0 | 0.0 | 0.00 | 0.00 | 0.00 | 68 | 1016.8 |
| 20260504020054 | 62 | 0 | 0.0 | 0.0 | 0.00 | 0.00 | 0.00 | 58 | 1016.6 |
| 20260504020023 | 63 | 360 | 0.0 | 0.0 | 0.00 | 0.00 | 0.00 | 69 | 1016.7 |
| 20260504014558 | 64 | 0 | 0.0 | 0.0 | 0.00 | 0.00 | 0.00 | 56 | 1016.4 |
| 20260504014522 | 64 | 360 | 0.0 | 0.0 | 0.00 | 0.00 | 0.00 | 67 | 1016.3 |
| 20260504013056 | 65 | 0 | 0.0 | 0.0 | 0.00 | 0.00 | 0.00 | 54 | 1016.3 |
| 20260504013022 | 65 | 360 | 0.0 | 0.0 | 0.00 | 0.00 | 0.00 | 65 | 1016.3 |
| 20260504011552 | 67 | 0 | 0.0 | 0.0 | 0.00 | 0.00 | 0.00 | 49 | 1016.3 |
| 20260504011523 | 67 | 360 | 0.0 | 0.0 | 0.00 | 0.00 | 0.00 | 61 | 1016.2 |
| 20260504010021 | 68 | 360 | 0.0 | 1.0 | 0.00 | 0.00 | 0.00 | 62 | 1016.2 |
| 20260504004553 | 71 | 360 | 0.0 | 1.0 | 0.00 | 0.00 | 0.00 | 43 | 1016.2 |
| 20260504004537 | 71 | 360 | 0.0 | 1.0 | 0.00 | 0.00 | 0.00 | 55 | 1016.1 |
| 20260504003055 | 73 | 0 | 0.0 | 1.0 | 0.00 | 0.00 | 0.00 | 38 | 1016.1 |
| 20260504003021 | 73 | 188 | 0.0 | 1.0 | 0.00 | 0.00 | 0.00 | 50 | 1016.1 |
| 20260504001552 | 75 | 0 | 0.0 | 2.0 | 0.00 | 0.00 | 0.00 | 37 | 1016.1 |
| 20260504001520 | 75 | 188 | 0.0 | 2.0 | 0.00 | 0.00 | 0.00 | 48 | 1016.0 |
| 20260504000130 | 78 | 188 | 1.0 | 6.0 | 0.00 | 0.00 | 0.00 | 33 | 1016.3 |
| 20260504000018 | 78 | 188 | 2.0 | 6.0 | 0.00 | 0.00 | 0.00 | 46 | 1016.3 |
| 20260503234601 | 78 | 292 | 0.0 | 4.0 | 0.00 | 0.00 | 0.00 | 33 | 1016.5 |
| 20260503234517 | 78 | 292 | 0.0 | 2.0 | 0.00 | 0.00 | 0.00 | 44 | 1016.4 |
| 20260503233051 | 79 | 0 | 1.0 | 5.0 | 0.00 | 0.00 | 0.00 | 31 | 1016.5 |
| 20260503233017 | 79 | 293 | 0.0 | 5.0 | 0.00 | 0.00 | 0.00 | 43 | 1016.4 |
| 20260503231555 | 79 | 193 | 2.0 | 5.0 | 0.00 | 0.00 | 0.00 | 31 | 1016.6 |
| 20260503231515 | 79 | 192 | 2.0 | 5.0 | 0.00 | 0.00 | 0.00 | 41 | 1016.5 |
| 20260503230055 | 78 | 0 | 0.0 | 2.0 | 0.00 | 0.00 | 0.00 | 32 | 1016.7 |
| 20260503224555 | 78 | 0 | 0.0 | 1.0 | 0.00 | 0.00 | 0.00 | 38 | 1016.7 |
| 20260503224512 | 78 | 273 | 0.0 | 1.0 | 0.00 | 0.00 | 0.00 | 46 | 1016.6 |
| 20260503223057 | 78 | 0 | 0.0 | 4.0 | 0.00 | 0.00 | 0.00 | 30 | 1016.8 |
| 20260503223011 | 78 | 273 | 0.0 | 4.0 | 0.00 | 0.00 | 0.00 | 42 | 1016.8 |
| 20260503221600 | 79 | 202 | 0.0 | 8.0 | 0.00 | 0.00 | 0.00 | 30 | 1016.9 |
| 20260503221509 | 79 | 202 | 0.0 | 8.0 | 0.00 | 0.00 | 0.00 | 41 | 1017.0 |
| 20260503220101 | 79 | 0 | 3.0 | 7.0 | 0.00 | 0.00 | 0.00 | 28 | 1017.0 |
| 20260503220009 | 79 | 171 | 2.0 | 6.0 | 0.00 | 0.00 | 0.00 | 42 | 1017.0 |
| 20260503214553 | 79 | 201 | 4.0 | 9.0 | 0.00 | 0.00 | 0.00 | 29 | 1017.1 |
| 20260503214507 | 79 | 200 | 4.0 | 9.0 | 0.00 | 0.00 | 0.00 | 40 | 1017.3 |
| 20260503213052 | 79 | 267 | 0.0 | 7.0 | 0.00 | 0.00 | 0.00 | 31 | 1017.4 |
| 20260503213007 | 79 | 237 | 0.0 | 7.0 | 0.00 | 0.00 | 0.00 | 42 | 1017.5 |
| 20260503211610 | 79 | 236 | 2.0 | 7.0 | 0.00 | 0.00 | 0.00 | 30 | 1017.7 |
| 20260503211503 | 79 | 211 | 2.0 | 6.0 | 0.00 | 0.00 | 0.00 | 42 | 1017.8 |
| 20260503210100 | 77 | 291 | 2.0 | 7.0 | 0.00 | 0.00 | 0.00 | 42 | 1018.1 |
| 20260503210056 | 77 | 0 | 1.0 | 7.0 | 0.00 | 0.00 | 0.00 | 31 | 1017.9 |
| 20260503204559 | 78 | 265 | 1.0 | 6.0 | 0.00 | 0.00 | 0.00 | 42 | 1018.2 |
| 20260503204557 | 78 | 265 | 2.0 | 7.0 | 0.00 | 0.00 | 0.00 | 31 | 1018.0 |
| 20260503203107 | 79 | 66 | 0.0 | 3.0 | 0.00 | 0.00 | 0.00 | 31 | 1018.3 |
| 20260503203056 | 79 | 66 | 1.0 | 3.0 | 0.00 | 0.00 | 0.00 | 42 | 1018.5 |